Weather History for Charlotte, MI

Change the Weather History Date:

Friday, March 22, 2013

  Actual Average (KLAN) Record (KLAN)
Temperature  
Mean Temperature 32 °F 37 °F  
Max Temperature 38 °F 47 °F 83 °F (2012)
Min Temperature 25 °F 28 °F -10 °F (1864)
Degree Days  
Heating Degree Days 34 28  
Month to date heating degree days 700  
Since 1 July heating degree days 5635  
Cooling Degree Days 0 0  
Month to date cooling degree days 0  
Year to date cooling degree days 0  
Moisture  
Dew Point 21 °F    
Average Humidity 71    
Maximum Humidity 81    
Minimum Humidity 56    
Precipitation  
Precipitation 0.00 in 0.07 in 0.72 in (2007)
Month to date precipitation 1.37  
Year to date precipitation 4.49  
Snow  
Snow 0.00 in 0.10 in 10.20 in (1916)
Month to date snowfall 5.6  
Since 1 July snowfall 47.8  
Snow Depth -    
Sea Level Pressure  
Sea Level Pressure 29.96 in    
Wind  
Wind Speed 8 mph (West)    
Max Wind Speed 13 mph    
Max Gust Speed 16 mph    
Visibility 10 miles    
Events      
T = Trace of Precipitation, MM = Missing Value Source: NWS Daily Summary

Daily Weather History Graph

Daily Weather History Graph

Search for Another Location

Airport:

Trip Planner

Search our weather history database for the weather conditions in past years. The results will help you decide how hot, cold, wet, or windy it might be!

Date:

Astronomy

Mar. 22, 2013 Rise Set
Actual Time 7:38 AM EDT 7:54 PM EDT
Civil Twilight 7:10 AM EDT 8:22 PM EDT
Nautical Twilight 6:37 AM EDT 8:55 PM EDT
Astronomical Twilight 6:03 AM EDT 9:29 PM EDT
Moon 3:15 PM EDT (3/22) 4:44 AM EDT (3/22)
Length of Visible Light 13h 11m
Length of Day
12h 15m
Waxing Gibbous, 77% of the Moon is Illuminated
Mar 22
Waxing Gibbous
Mar 27
Full
Apr 3
Last Quarter
Apr 10
New
Apr 18
First Quarter

Hourly Weather History & Observations

Time (EDT) Temp. Windchill Dew Point Humidity Pressure Visibility Wind Dir Wind Speed Gust Speed Precip Events Conditions
12:15 AM 25.3 °F 16.7 °F 18.3 °F 75% 29.94 in 10.0 mi West 8.1 mph - N/A   Overcast
12:35 AM 25.3 °F 17.6 °F 18.5 °F 75% 29.94 in 10.0 mi West 6.9 mph - N/A   Overcast
12:55 AM 25.3 °F 15.3 °F 18.3 °F 75% 29.94 in 10.0 mi WNW 10.4 mph - N/A   Overcast
1:15 AM 25.3 °F 16.7 °F 18.1 °F 74% 29.94 in 10.0 mi WNW 8.1 mph - N/A   Overcast
1:35 AM 25.2 °F 15.7 °F 18.5 °F 76% 29.94 in 10.0 mi West 9.2 mph - N/A   Overcast
1:55 AM 25.2 °F 15.7 °F 18.7 °F 76% 29.94 in 10.0 mi West 9.2 mph - N/A   Overcast
2:15 AM 25.2 °F 18.3 °F 18.9 °F 77% 29.94 in 10.0 mi West 5.8 mph - N/A   Overcast
2:35 AM 25.2 °F 16.5 °F 18.5 °F 76% 29.94 in 10.0 mi WNW 8.1 mph - N/A   Overcast
2:55 AM 25.2 °F 15.7 °F 18.5 °F 76% 29.94 in 10.0 mi West 9.2 mph - N/A   Overcast
3:15 AM 25.3 °F 19.7 °F 18.7 °F 76% 29.94 in 10.0 mi WNW 4.6 mph - N/A   Overcast
3:35 AM 25.3 °F 18.5 °F 18.5 °F 75% 29.94 in 10.0 mi WNW 5.8 mph - N/A   Overcast
3:55 AM 25.3 °F 18.5 °F 18.5 °F 75% 29.94 in 10.0 mi West 5.8 mph - N/A   Overcast
4:15 AM 25.5 °F 16.9 °F 18.5 °F 75% 29.94 in 10.0 mi West 8.1 mph - N/A   Overcast
4:35 AM 25.5 °F 18.7 °F 18.5 °F 75% 29.94 in 10.0 mi WNW 5.8 mph - N/A   Overcast
4:55 AM 25.7 °F 18.0 °F 18.5 °F 74% 29.94 in 10.0 mi West 6.9 mph - N/A   Overcast
5:15 AM 25.7 °F 18.0 °F 18.9 °F 75% 29.94 in 10.0 mi West 6.9 mph - N/A   Overcast
5:35 AM 25.7 °F 18.0 °F 19.0 °F 76% 29.94 in 10.0 mi West 6.9 mph - N/A   Overcast
5:55 AM 25.7 °F 19.0 °F 19.2 °F 76% 29.95 in 10.0 mi West 5.8 mph - N/A   Overcast
6:15 AM 25.7 °F 18.0 °F 19.4 °F 77% 29.95 in 10.0 mi West 6.9 mph - N/A   Overcast
6:35 AM 25.7 °F 18.0 °F 19.4 °F 77% 29.95 in 10.0 mi West 6.9 mph - N/A   Overcast
6:55 AM 25.9 °F 18.2 °F 19.6 °F 77% 29.96 in 10.0 mi West 6.9 mph - N/A   Overcast
7:15 AM 25.7 °F 19.0 °F 20.1 °F 79% 29.96 in 10.0 mi WSW 5.8 mph - N/A   Overcast
7:35 AM 25.7 °F 19.0 °F 20.3 °F 80% 29.96 in 10.0 mi West 5.8 mph - N/A   Overcast
7:55 AM 25.9 °F 18.2 °F 20.1 °F 79% 29.96 in 10.0 mi West 6.9 mph - N/A   Overcast
8:15 AM 26.4 °F 19.8 °F 20.1 °F 77% 29.96 in 10.0 mi West 5.8 mph - N/A   Overcast
8:35 AM 26.6 °F 18.2 °F 19.9 °F 76% 29.96 in 10.0 mi West 8.1 mph - N/A   Overcast
8:55 AM 27.1 °F 18.9 °F 19.8 °F 74% 29.96 in 10.0 mi West 8.1 mph - N/A   Overcast
9:15 AM 27.5 °F 21.1 °F 20.1 °F 74% 29.96 in 10.0 mi West 5.8 mph - N/A   Overcast
9:35 AM 28.2 °F 20.2 °F 19.8 °F 71% 29.96 in 10.0 mi West 8.1 mph - N/A   Overcast
9:55 AM 28.8 °F 19.5 °F 19.6 °F 69% 29.96 in 10.0 mi West 10.4 mph - N/A   Overcast
10:15 AM 29.3 °F 21.5 °F 20.1 °F 69% 29.96 in 10.0 mi West 8.1 mph - N/A   Overcast
10:35 AM 29.3 °F 20.2 °F 19.9 °F 68% 29.96 in 10.0 mi WNW 10.4 mph - N/A   Overcast
10:55 AM 29.8 °F 20.9 °F 20.3 °F 68% 29.96 in 10.0 mi WNW 10.4 mph - N/A   Overcast
11:15 AM 30.2 °F 21.9 °F 20.3 °F 67% 29.96 in 10.0 mi WNW 9.2 mph - N/A   Overcast
11:35 AM 30.7 °F 23.3 °F 20.8 °F 67% 29.96 in 10.0 mi WNW 8.1 mph - N/A   Overcast
11:55 AM 31.5 °F 23.5 °F 21.2 °F 66% 29.96 in 10.0 mi West 9.2 mph - N/A   Overcast
12:15 PM 31.8 °F 23.9 °F 21.2 °F 65% 29.96 in 10.0 mi West 9.2 mph - N/A   Overcast
12:35 PM 32.7 °F 23.4 °F 22.1 °F 65% 29.96 in 10.0 mi West 12.7 mph - N/A   Overcast
12:55 PM 33.8 °F 27.0 °F 21.6 °F 61% 29.96 in 10.0 mi WNW 8.1 mph - N/A   Mostly Cloudy
1:15 PM 34.3 °F 26.5 °F 22.8 °F 63% 29.96 in 10.0 mi WNW 10.4 mph - N/A   Mostly Cloudy
1:35 PM 36.3 °F 30.1 °F 23.5 °F 60% 29.96 in 10.0 mi West 8.1 mph - N/A   Mostly Cloudy
1:55 PM 36.0 °F 30.3 °F 22.5 °F 58% 29.96 in 10.0 mi WNW 6.9 mph - N/A   Mostly Cloudy
2:15 PM 34.9 °F 27.1 °F 22.1 °F 60% 29.96 in 10.0 mi WNW 10.4 mph - N/A   Scattered Clouds
2:35 PM 36.9 °F 31.4 °F 23.7 °F 59% 29.96 in 10.0 mi West 6.9 mph - N/A   Scattered Clouds
2:55 PM 36.0 °F 30.3 °F 23.0 °F 59% 29.96 in 10.0 mi WSW 6.9 mph - N/A   Scattered Clouds
3:15 PM 36.0 °F 30.3 °F 23.2 °F 60% 29.95 in 10.0 mi WNW 6.9 mph - N/A   Mostly Cloudy
3:35 PM 37.0 °F 32.4 °F 23.9 °F 59% 29.95 in 10.0 mi NW 5.8 mph - N/A   Mostly Cloudy
3:55 PM 36.9 °F 29.6 °F 23.0 °F 57% 29.94 in 10.0 mi West 10.4 mph - N/A   Mostly Cloudy
4:15 PM 38.1 °F 31.7 °F 23.5 °F 56% 29.94 in 10.0 mi West 9.2 mph - N/A   Scattered Clouds
4:35 PM 37.6 °F 30.5 °F 24.1 °F 58% 29.94 in 10.0 mi West 10.4 mph - N/A   Mostly Cloudy
4:55 PM 36.7 °F 28.9 °F 24.3 °F 61% 29.94 in 10.0 mi WNW 11.5 mph - N/A   Mostly Cloudy
5:15 PM 35.6 °F 28.6 °F 24.3 °F 63% 29.94 in 10.0 mi NW 9.2 mph - N/A   Mostly Cloudy
5:35 PM 35.6 °F 27.5 °F 23.7 °F 62% 29.95 in 10.0 mi WNW 11.5 mph 16.1 mph N/A   Mostly Cloudy
5:55 PM 35.4 °F 28.4 °F 23.9 °F 63% 29.95 in 10.0 mi WNW 9.2 mph - N/A   Scattered Clouds
6:15 PM 34.3 °F 27.0 °F 23.5 °F 65% 29.95 in 10.0 mi WNW 9.2 mph - N/A   Scattered Clouds
6:35 PM 33.1 °F 26.9 °F 23.5 °F 68% 29.96 in 10.0 mi West 6.9 mph - N/A   Mostly Cloudy
6:55 PM 33.1 °F 27.7 °F 23.2 °F 67% 29.96 in 10.0 mi West 5.8 mph - N/A   Mostly Cloudy
7:15 PM 33.3 °F 27.1 °F 23.2 °F 67% 29.96 in 10.0 mi WNW 6.9 mph - N/A   Scattered Clouds
7:35 PM 32.4 °F 25.3 °F 22.8 °F 68% 29.97 in 10.0 mi West 8.1 mph - N/A   Clear
7:55 PM 31.5 °F 24.9 °F 22.5 °F 69% 29.98 in 10.0 mi WSW 6.9 mph - N/A   Clear
8:15 PM 30.4 °F 25.6 °F 22.1 °F 71% 29.99 in 10.0 mi West 4.6 mph - N/A   Clear
8:35 PM 29.3 °F 24.3 °F 21.9 °F 74% 29.99 in 10.0 mi West 4.6 mph - N/A   Clear
8:55 PM 28.9 °F 23.9 °F 21.7 °F 74% 30.00 in 10.0 mi West 4.6 mph - N/A   Clear
9:15 PM 28.8 °F 22.6 °F 21.7 °F 75% 30.00 in 10.0 mi West 5.8 mph - N/A   Clear
9:35 PM 28.0 °F 22.8 °F 21.6 °F 77% 30.01 in 10.0 mi West 4.6 mph - N/A   Clear
9:55 PM 27.5 °F 22.2 °F 21.2 °F 77% 30.01 in 10.0 mi West 4.6 mph - N/A   Clear
10:15 PM 27.3 °F 20.9 °F 21.0 °F 77% 30.01 in 10.0 mi West 5.8 mph - N/A   Clear
10:35 PM 27.0 °F 23.0 °F 20.7 °F 77% 30.00 in 10.0 mi West 3.5 mph - N/A   Clear
10:55 PM 26.4 °F - 20.7 °F 79% 30.00 in 10.0 mi Calm Calm - N/A   Clear
11:15 PM 26.6 °F - 20.7 °F 78% 30.00 in 10.0 mi Calm Calm - N/A   Clear
11:35 PM 25.9 °F - 20.7 °F 81% 30.00 in 10.0 mi Calm Calm - N/A   Clear
11:55 PM 25.5 °F 21.3 °F 20.5 °F 81% 30.01 in 10.0 mi West 3.5 mph - N/A   Clear